Regional Weather Roundup
Issued by NWS

Home | Current Version | Previous Version | Text Only | Print | Product List | Glossary On
Versions: 1 2 3 4 5 6 7 8 9 10 11 12 13 14 15 16 17 18 19 20 21 22 23 24 25 26 27 28 29 30 31 32 33 34 35 36 37 38 39 40 41 42 43 44 45 46 47 48 49 50
000
ASUS44 KFWD 131515
RWRTX
NORTH TEXAS HOURLY WEATHER ROUNDUP
NATIONAL WEATHER SERVICE FORT WORTH TX
1000 AM CDT SUN JUL 13 2014

NOTE: "FAIR" INDICATES FEW OR NO CLOUDS BELOW 12,000 FEET WITH NO
SIGNIFICANT WEATHER AND/OR OBSTRUCTIONS TO VISIBILITY.

TXZ118-119-131600-
DALLAS/FORT WORTH METROPLEX

CITY           SKY/WX    TMP DP  RH WIND       PRES   REMARKS
DFW AIRPORT    SUNNY     89  68  49 W14       30.10S HX  93
DALLAS LOVE    SUNNY     89  69  51 W9        30.10S HX  93
FTW MEACHAM    SUNNY     89  69  51 W8        30.11R HX  93
DAL-EXECUTIVE  SUNNY     90  70  51 VRB5      30.10S HX  95
FTW-ALLIANCE   MOSUNNY   87  68  52 W10       30.10S HX  90
FTW-NAS-JRB    SUNNY     89  67  47 W10       30.15S HX  92
FTW-SPINKS     SUNNY     88  68  51 SW12      30.13R HX  91
ARLINGTON      SUNNY     88  68  51 W6        30.11S HX  91
GRAND PRAIRIE  SUNNY     88  66  48 SW8       30.12R HX  90
ADDISON        SUNNY     88  66  48 SW7       30.11S HX  90
MESQUITE       SUNNY     88  70  55 SW9       30.11R HX  92
LANCASTER      SUNNY     88  69  53 W9        30.11S HX  93
$$

TXZ091>094-102>105-117-120-121-131>134-131600-
NORTH CENTRAL TEXAS

CITY           SKY/WX    TMP DP  RH WIND       PRES   REMARKS
SHRMAN/DENISON SUNNY     88  67  48 SW12      30.12S HX  91
GAINESVILLE    SUNNY     88  67  50 SW12      30.13R HX  91
BOWIE          SUNNY     86  68  55 SW8       30.12S
BRIDGEPORT     SUNNY     87  64  47 W8        30.13F
DECATUR        SUNNY     84  66  53 SW8       30.12F
DENTON         SUNNY     88  68  51 SW12      30.10F HX  91
MCKINNEY       SUNNY     89  68  49 SW13      30.11S HX  93
GREENVILLE     SUNNY     88  68  51 SW7       30.11S HX  91
ROCKWALL       SUNNY     88  72  58 W8        30.10S HX  94
TERRELL        SUNNY     89  71  55 W12       30.11S HX  95
WAXAHACHIE     SUNNY     86  67  53 W9        30.13R
CLEBURNE       SUNNY     86  72  62 SW8       30.13S HX  92
GRANBURY       SUNNY     88  68  51 W9        30.13R HX  92
$$

TXZ083>090-098>101-113>116-127>130-139>142-154-155-131600-
WESTERN NORTH TEXAS

CITY           SKY/WX    TMP DP  RH WIND       PRES   REMARKS
WICHITA FALLS  SUNNY     87  61  41 SW10      30.10S
WF-KICKAPOO    SUNNY     87  57  36 W14       30.12S
VERNON         SUNNY     89  57  34 W12       30.12S
ABILENE        SUNNY     85  65  51 S12       30.16R
ABILENE-DYESS  SUNNY     86  66  50 S13       30.14S
BRECKENRIDGE   SUNNY     88  63  42 SW9       30.13S
MINERAL WELLS  SUNNY     85  67  54 W7        30.11S
STEPHENVILLE   SUNNY     86  65  48 SW8       30.16S
COMANCHE       SUNNY     86  63  45 SW12      30.15S
BROWNWOOD      SUNNY     84  66  54 S5        30.15S
COLEMAN        SUNNY     84  63  49 SW6       30.17S
BRADY          SUNNY     84  64  51 S8        30.16S
$$

TXZ143>147-156>162-174-175-131600-
CENTRAL TEXAS

CITY           SKY/WX    TMP DP  RH WIND       PRES   REMARKS
WACO           SUNNY     88  68  51 SW7       30.11S HX  91
WACO-TSTC      SUNNY     86  68  54 W6        30.11S
WACO-MCGREGOR  SUNNY     88  66  48 SW8       30.12S HX  90
HILLSBORO      SUNNY     86  68  54 SW5       30.12S
CORSICANA      SUNNY     88  71  57 SW8       30.12S HX  94
MEXIA          SUNNY     85  71  63 W6        30.11S HX  90
HEARNE         SUNNY     88  76  66 CALM      30.11S HX  99
CAMERON        SUNNY     86  70  57 W6        30.11S HX  91
TEMPLE         SUNNY     86  63  45 SW8       30.12S
KILLEEN        SUNNY     86  64  48 S9        30.12S
KILLEEN-SKYLRK SUNNY     88  64  45 SW7       30.12S
FORT HOOD      SUNNY     88  66  48 S5        30.12S HX  90
GATESVILLE     SUNNY     86  68  54 SW7       30.15S
HAMILTON       SUNNY     85  66  53 SW6       30.15F
LAMPASAS       SUNNY     84  67  57 SW7       30.14R
$$

TXZ095>097-106>112-122>126-135>138-148>153-164>167-131600-
EAST TEXAS

CITY           SKY/WX    TMP DP  RH WIND       PRES   REMARKS
PARIS          SUNNY     88  68  51 W9        30.10S HX  91
SULPHUR SPRNGS SUNNY     89  69  52 W9        30.13R HX  93
CLARKSVILLE    MOSUNNY   89  70  53 SW3       30.10S HX  94
MOUNT PLEASANT SUNNY     86  72  61 SW5       30.12S HX  92
GILMER         SUNNY     88  73  62 W5        30.12S HX  96
MINEOLA        CLOUDY    88  73  62 W8        30.12S HX  96
TYLER          SUNNY     87  73  62 W6        30.11S HX  94
LONGVIEW       SUNNY     88  72  58 W5        30.10S HX  94
MARSHALL         N/A     89  75  63 SW5       30.12S HX  98
ATHENS         SUNNY     82  72  69 W3        30.10F
PALESTINE      SUNNY     81  66  59 W7        30.14R
JACKSONVILLE   SUNNY     85  72  65 W6        30.15R HX  90
HENDERSON      SUNNY     86  72  62 W7        30.12S HX  92
NACOGDOCHES    SUNNY     86  73  66 W7        30.11S HX  93
LUFKIN         SUNNY     88  74  63 W6        30.11S HX  96
$$

SUPPLEMENTAL OBSERVATIONS (CENTRAL)

CITY           SKY/WX    TMP DP  RH WIND       PRES   REMARKS
LAKE TEXOMA      N/A     86  63  45 SW17        N/A
CADDO GRASSLND   N/A     90  72  55 SW6         N/A  HX  96
PAT MAYSE LAKE   N/A     84  68  58 SW8         N/A
GREENVILLE       N/A     90  70  51 W10         N/A  HX  95
ATHENS           N/A     90  72  55 W3          N/A  HX  96
PALESTINE        N/A     90  73  58 NW3         N/A  HX  98
MCGREGOR         N/A     90  66  45 SW7         N/A  HX  92
TEMPLE           N/A     88  68  51 SW3         N/A  HX  91
$$

SUPPLEMENTAL OBSERVATIONS (WEST)

CITY           SKY/WX    TMP DP  RH WIND       PRES   REMARKS
MILLERS CREEK    N/A     88  64  45 W13         N/A
POSSUM KINGDOM   N/A     90  64  43 SW9         N/A  HX  91
LBJ GRASSLAND    N/A     88  68  51 SW7         N/A  HX  91
GRANBURY         N/A     90  68  48 W8          N/A  HX  93
HAMBY            N/A     86  64  48 SW13        N/A
IVIE RESERVOIR   N/A     88  66  48 S7          N/A  HX  90
COLORADO BEND    N/A     88  64  45 S7          N/A
$$

SUPPLEMENTAL OBSERVATIONS (EAST)

CITY           SKY/WX    TMP DP  RH WIND       PRES   REMARKS
CLARKSVILLE      N/A     91  70  49 SW2         N/A  HX  97
TEXARKANA        N/A     91  73  55 W1          N/A  HX 100
LINDEN           N/A     90  70  51 W3          N/A  HX  95
CADDO LAKE       N/A     91  73  55 W3          N/A  HX 100
GILMER           N/A     90  72  55 NW6         N/A  HX  96
HENDERSON        N/A     88  73  62 W7          N/A  HX  96
LUFKIN           N/A     86  84  94 MISG        N/A  HX 108
N SABINE NF      N/A     88  75  66 MISG        N/A  HX  97
S SABINE NF      N/A     90  75  62 N5          N/A  HX 100
$$

SUPPLEMENTAL OBSERVATIONS ARE A COLLECTION OF AUTOMATED INSTRUMENTS
THAT ARE MAINTAINED BY A VARIETY OF FEDERAL AND STATE AGENCIES.
CERTAIN ELEMENTS...SUCH AS HUMIDITY VALUES AND SUSTAINED WIND
SPEEDS...MAY BE APPROXIMATED.



USA.gov is the U.S. government's official web portal to all federal, state and local government web resources and services.